Temp
57 57 56 55 55 56 54 56 55 54 55 54 53 52 53 55 53 51 52 52 53 54 57 53 53 53 53 54 53 52 54 55 55 55 53 52 55 56 55 54 53 52 50 51 53 57 51 53 55 55 54 55 55 56 58 58 56 55 55 54 57 56 55
58 57 57 59 57 57 54 55 55 54 54 54 52 53 53 54 58 53 52 53 53 55 55 52 52 52 53 53 53 53 53 51 53 53 53 51 51 53 52 51 51 50 51 51 51 52 55 55 51 49 54 53 54 53 53 55 57 56 56 55 56 58 56
59 57 57 56 55 54 55 54 54 54 54 54 54 53 53 54 54 54 52 53 53 55 55 51 51 51 51 51 51 52 51 52 51 53 55 50 50 50 52 51 52 52 54 55 52 50 51 53 55 53 50 53 54 53 49 53 55 56 56 55 56 58 57
58 57 55 54 54 54 55 55 54 54 54 53 53 55 52 53 52 55 53 52 54 57 54 51 52 52 50 50 51 52 51 52 51 52 52 50 50 51 50 52 52 53 54 52 52 50 54 50 52 51 50 50 53 53 54 52 54 56 56 55 56 56 56
59 58 57 56 56 56 55 55 54 54 54 54 53 53 53 51 54 53 54 54 55 51 51 51 50 50 50 50 50 50 50 49 50 51 49 49 48 48 48 47 49 49 47 50 49 49 53 50 52 51 50 49 51 52 53 51 53 53 55 55 56 56 56
60 59 59 58 57 57 56 55 54 54 54 54 54 53 53 51 54 52 52 51 52 52 51 50 50 49 49 49 50 50 49 51 50 49 50 49 49 51 50 46 47 48 51 47 48 47 45 46 48 50 48 46 51 49 51 49 56 53 53 55 55 56 56
58 59 58 59 58 57 57 57 56 56 55 55 55 54 55 54 54 54 54 52 52 52 52 51 50 50 50 50 50 50 50 48 48 48 48 48 46 47 48 48 48 48 48 47 47 47 47 49 49 51 48 45 45 48 47 50 50 55 57 55 54 54 55
59 58 58 59 58 58 57 57 57 57 56 56 56 57 55 55 54 53 53 52 51 51 52 52 52 51 51 51 51 50 49 47 48 48 48 48 49 48 47 48 49 47 48 47 47 48 48 50 48 46 49 52 49 45 48 47 46 52 55 55 56 56 56
60 59 59 59 58 59 58 58 58 57 57 58 57 57 55 56 54 54 54 53 51 51 52 51 51 51 50 50 50 50 50 50 49 49 48 48 49 48 48 46 49 49 47 47 48 47 48 47 49 46 48 48 49 49 44 49 47 52 52 56 57 56 56
59 58 58 58 58 58 58 58 58 59 58 58 58 58 56 55 55 54 54 53 51 51 51 52 51 51 50 52 51 49 50 50 50 50 47 49 48 47 47 48 49 49 48 47 49 48 47 47 48 48 49 49 47 50 47 46 44 49 54 53 55 58 56
59 59 59 59 59 58 57 58 58 58 58 59 59 59 57 56 55 57 54 53 52 52 52 52 52 51 50 51 51 51 51 49 50 49 49 49 48 47 49 48 49 50 50 48 49 48 48 48 47 48 48 47 48 50 46 49 47 45 50 49 50 57 55
59 59 59 60 59 58 58 58 58 59 59 58 59 58 57 56 55 55 54 54 52 52 52 52 51 50 50 50 50 50 49 49 50 50 48 50 49 49 49 50 48 49 48 49 48 48 48 48 48 48 47 47 47 49 46 47 47 47 48 53 51 52 54
59 59 59 59 58 59 60 59 59 58 58 59 58 59 58 57 56 56 55 55 54 53 53 52 52 51 50 51 51 50 49 49 50 51 50 49 50 49 50 50 50 49 48 48 48 48 49 49 49 48 48 48 48 46 47 47 47 50 47 49 50 51 52
58 59 59 59 59 59 60 60 60 60 60 58 59 58 58 58 57 57 57 56 56 54 53 53 52 51 51 51 50 51 50 50 51 50 50 49 49 50 50 51 51 50 49 49 49 49 49 50 49 49 48 48 48 46 49 48 48 49 49 46 47 51 51
59 59 59 58 59 59 59 59 60 60 59 60 59 59 59 58 58 57 57 57 56 56 55 55 53 52 52 51 51 51 50 50 50 50 49 51 50 50 50 50 51 51 49 51 51 51 52 51 50 50 49 50 50 48 49 50 48 48 49 48 50 50 50
59 58 58 58 58 59 59 59 60 59 59 59 59 60 60 59 58 57 57 57 56 56 55 55 53 53 53 53 53 51 52 51 51 51 49 50 51 51 50 50 51 51 50 49 50 51 50 51 51 52 51 50 50 50 49 50 49 47 47 50 49 50 51
59 59 58 59 58 59 59 59 60 60 60 60 59 59 60 60 59 57 57 57 56 56 55 55 54 54 54 54 54 53 52 52 52 52 52 52 52 52 51 51 51 51 51 50 51 50 50 50 50 51 52 51 50 51 50 48 50 50 49 48 47 51 50
59 59 58 59 58 59 59 59 60 60 60 59 60 59 59 60 59 58 57 57 57 56 56 56 55 54 54 54 54 54 53 53 53 53 53 54 54 53 53 53 54 53 51 51 51 50 51 49 51 50 51 52 51 51 50 49 49 48 48 48 48 47 48
59 59 59 59 59 59 59 59 59 60 61 60 60 60 60 59 59 58 59 59 59 58 58 56 56 56 55 55 54 54 54 54 54 54 54 54 55 55 54 54 54 54 52 51 52 52 52 51 51 50 50 51 52 51 50 49 48 48 47 48 48 49 47
60 60 60 60 59 59 59 59 60 60 60 60 60 59 59 59 59 60 59 59 59 59 58 57 57 56 56 56 55 55 54 54 54 54 55 55 55 55 55 55 55 54 53 53 53 53 53 52 51 51 51 51 52 51 50 50 49 48 47 47 48 47 48
61 61 61 61 60 60 60 60 60 60 60 59 60 60 60 60 60 60 60 60 60 59 59 58 57 57 57 56 56 55 55 55 55 55 55 55 55 55 55 55 56 55 55 55 54 55 54 53 52 52 52 52 52 51 50 49 48 48 47 47 47 48 47
62 62 62 61 60 60 60 60 60 60 59 60 60 61 61 61 60 59 60 60 60 60 59 59 58 58 57 57 56 56 56 56 55 55 55 55 55 55 56 56 56 56 56 57 58 57 57 56 54 52 52 52 52 50 50 49 49 48 48 48 48 47 47
62 61 61 61 61 60 60 60 60 59 59 60 60 60 60 60 60 60 60 60 60 59 59 59 60 58 58 59 57 58 57 57 56 56 56 56 55 55 56 57 57 58 58 58 58 57 56 56 57 57 55 53 53 51 50 49 48 48 48 48 48 48 46
61 60 60 60 60 60 60 60 60 60 60 59 59 59 60 59 59 60 60 60 59 59 60 61 57 51 50 53 59 58 57 57 57 57 57 56 56 57 57 57 57 57 58 58 58 55 54 53 53 53 55 56 55 54 51 50 50 50 48 48 49 47 47
60 60 59 60 61 61 61 60 60 60 60 59 59 59 58 59 60 60 60 60 60 60 60 60 52 50 50 49 54 59 58 58 57 57 57 57 57 58 58 57 57 57 57 57 58 58 56 53 51 51 50 50 50 52 52 52 52 50 49 49 48 48 48
60 59 59 61 61 61 60 60 60 60 59 60 60 58 59 59 59 59 60 60 60 60 60 56 50 50 49 48 48 54 60 59 58 58 58 58 58 58 58 57 57 57 58 58 57 58 58 57 53 51 51 50 51 49 46 46 50 54 53 50 50 49 49
60 60 60 59 60 60 60 60 60 60 60 60 59 59 59 59 59 59 60 60 60 61 60 58 50 49 49 48 47 48 57 59 59 59 59 59 59 58 58 58 58 58 58 57 58 57 56 56 55 54 53 52 52 52 50 47 46 48 52 53 52 51 52
60 60 60 59 59 58 59 59 60 60 60 60 59 59 59 59 59 60 60 60 60 60 61 55 50 49 48 48 47 48 55 57 58 59 59 60 60 59 59 59 58 59 59 59 58 57 55 55 55 53 53 52 52 52 52 52 51 50 49 52 54 54 54
60 60 60 59 59 58 59 59 60 60 60 60 60 60 59 59 59 59 60 60 59 60 62 53 49 49 48 47 47 53 55 55 56 58 58 59 60 60 60 60 59 59 59 58 58 53 54 54 53 53 52 53 53 52 52 54 50 50 52 52 53 54 55
60 60 59 59 59 59 59 59 60 60 59 59 59 59 59 59 60 60 60 60 59 60 61 56 49 49 48 47 48 55 55 56 56 57 58 59 60 60 60 61 60 59 59 59 56 49 47 53 52 53 52 52 52 51 51 52 49 46 47 47 48 48 48
60 60 60 59 59 59 59 60 60 61 59 59 59 60 60 60 60 60 60 60 60 60 60 59 51 49 48 48 52 57 57 57 57 57 58 59 59 60 60 59 59 59 58 58 52 48 45 50 52 52 52 51 51 50 50 51 49 49 46 46 46 45 45
61 60 60 59 59 59 58 59 60 60 59 60 60 61 61 60 60 60 60 60 61 60 61 59 51 49 48 48 51 56 58 57 56 57 58 59 59 58 58 58 58 58 59 57 50 47 44 50 52 51 51 50 49 50 51 50 48 48 47 47 48 47 47
60 60 60 60 59 59 60 59 59 58 58 59 59 59 60 60 59 60 60 60 60 61 61 61 60 50 49 48 48 55 56 56 55 57 58 58 58 57 56 57 57 51 48 48 48 46 44 45 51 52 51 50 50 50 52 52 52 52 50 49 49 49 49
60 60 60 60 60 59 59 58 57 58 57 58 57 57 58 58 59 59 60 60 60 60 61 61 60 51 50 49 47 49 56 56 57 57 58 57 57 57 57 57 57 53 46 45 45 45 45 43 46 51 51 51 51 52 52 52 52 53 51 49 49 48 47
60 60 61 60 59 59 59 58 58 58 57 56 56 56 57 56 57 59 59 58 59 60 61 60 60 53 49 48 48 46 53 56 57 57 56 57 57 56 57 57 56 51 46 44 44 44 43 43 42 47 50 46 45 45 52 52 50 50 49 48 47 47 47
59 60 60 59 59 58 58 57 57 57 56 56 56 56 56 55 55 55 55 55 56 56 57 57 53 55 51 48 47 46 46 52 49 54 56 56 56 56 56 54 55 51 44 43 42 42 42 41 43 45 43 43 43 43 47 49 48 48 47 47 47 47 46
54 55 56 57 58 57 57 57 56 56 56 56 55 55 55 55 54 54 55 55 55 55 55 55 53 51 51 48 46 46 45 45 47 53 55 55 56 55 52 51 50 46 43 42 41 41 40 42 44 42 41 41 42 44 48 47 45 45 45 44 44 45 44
MSLP
1018.67 1018.75 1018.91 1019.03 1019.27 1019.23 1019.27 1019.31 1019.39 1019.43 1019.55 1019.59 1019.55 1019.59 1019.63 1019.59 1019.63 1019.71 1019.75 1019.79 1019.83 1019.91 1019.91 1019.91 1019.99 1020.23 1020.27 1020.47 1020.47 1020.47 1020.55 1020.51 1020.51 1020.79 1021.23 1021.43 1021.27 1021.63 1022.15 1021.95 1021.99 1022.27 1022.27 1022.03 1021.95 1021.95 1022.27 1022.39 1022.39 1022.75 1022.87 1022.79 1022.91 1022.79 1022.75 1022.79 1022.99 1023.03 1023.07 1023.19 1023.15 1023.15 1023.19
1018.55 1018.75 1018.87 1019.03 1019.11 1019.23 1019.27 1019.39 1019.39 1019.39 1019.51 1019.55 1019.59 1019.59 1019.59 1019.59 1019.55 1019.63 1019.75 1019.79 1019.83 1019.87 1019.95 1020.07 1020.19 1020.27 1020.15 1020.15 1020.31 1020.35 1020.35 1020.59 1020.63 1020.71 1020.91 1021.19 1021.35 1021.27 1021.67 1021.95 1022.03 1021.95 1022.15 1022.27 1022.39 1022.23 1021.99 1022.31 1022.39 1022.47 1022.27 1022.71 1022.79 1022.71 1022.67 1022.79 1022.79 1022.87 1022.87 1022.87 1022.91 1022.95 1023.03
1018.63 1018.83 1018.95 1019.03 1019.11 1019.27 1019.23 1019.31 1019.35 1019.39 1019.43 1019.51 1019.47 1019.59 1019.59 1019.63 1019.59 1019.63 1019.67 1019.67 1019.75 1019.87 1019.95 1019.99 1020.15 1020.23 1020.27 1020.27 1020.31 1020.35 1020.47 1020.47 1020.79 1020.75 1020.67 1020.95 1021.15 1021.19 1021.27 1021.31 1021.51 1021.91 1021.87 1021.95 1022.03 1022.11 1022.35 1022.43 1022.15 1022.03 1022.19 1022.23 1022.27 1022.03 1022.43 1022.47 1022.59 1022.71 1022.75 1022.79 1022.79 1022.79 1022.79
1018.47 1018.67 1018.99 1019.11 1019.15 1019.27 1019.27 1019.23 1019.31 1019.31 1019.39 1019.43 1019.47 1019.39 1019.59 1019.67 1019.63 1019.67 1019.67 1019.67 1019.75 1019.79 1019.87 1019.99 1019.95 1020.07 1020.23 1020.31 1020.47 1020.55 1020.55 1020.47 1020.67 1020.79 1020.95 1021.15 1021.23 1021.23 1021.31 1021.27 1021.19 1021.23 1021.27 1021.47 1021.63 1021.91 1021.87 1022.11 1022.39 1022.27 1022.35 1022.63 1022.43 1022.19 1021.91 1022.43 1022.35 1022.39 1022.59 1022.63 1022.59 1022.51 1022.55
1018.19 1018.51 1018.67 1018.75 1018.91 1018.91 1019.03 1019.07 1019.23 1019.35 1019.31 1019.43 1019.51 1019.39 1019.43 1019.63 1019.63 1019.67 1019.79 1019.75 1019.79 1019.83 1019.83 1019.87 1019.99 1020.07 1020.27 1020.39 1020.47 1020.47 1020.59 1020.79 1020.87 1020.83 1020.91 1020.99 1021.19 1021.27 1021.27 1021.39 1021.31 1021.35 1021.47 1021.31 1021.47 1021.63 1021.71 1021.83 1021.95 1021.99 1022.07 1022.59 1022.87 1022.67 1022.23 1022.15 1022.11 1022.07 1022.19 1022.31 1022.31 1022.35 1022.43
1017.95 1018.11 1018.31 1018.43 1018.63 1018.75 1018.91 1018.99 1019.15 1019.19 1019.23 1019.31 1019.31 1019.27 1019.31 1019.47 1019.59 1019.63 1019.71 1019.75 1019.75 1019.83 1019.87 1019.91 1019.95 1020.07 1020.15 1020.27 1020.31 1020.43 1020.55 1020.55 1020.67 1020.75 1020.79 1020.87 1021.03 1020.99 1021.07 1021.63 1021.67 1021.51 1021.35 1021.63 1021.67 1021.71 1022.11 1022.15 1022.03 1022.07 1022.55 1023.75 1022.11 1022.11 1022.27 1022.63 1021.83 1022.03 1022.11 1022.07 1022.11 1022.19 1022.27
1017.79 1017.95 1018.07 1018.19 1018.39 1018.51 1018.63 1018.67 1018.79 1018.87 1018.99 1018.95 1019.03 1019.03 1019.03 1019.31 1019.51 1019.43 1019.51 1019.59 1019.67 1019.75 1019.83 1019.87 1019.95 1019.99 1020.07 1020.11 1020.27 1020.31 1020.43 1020.71 1020.95 1020.83 1020.83 1021.03 1021.23 1021.27 1021.39 1021.27 1021.43 1021.43 1021.51 1021.83 1021.71 1021.79 1021.75 1021.87 1021.95 1021.83 1022.03 1023.07 1023.27 1022.23 1022.51 1022.19 1022.59 1021.87 1021.83 1022.03 1022.11 1022.07 1022.11
1017.47 1017.71 1017.87 1017.87 1018.03 1018.31 1018.47 1018.51 1018.59 1018.75 1018.75 1018.79 1018.83 1018.79 1019.11 1019.19 1019.31 1019.51 1019.59 1019.55 1019.63 1019.71 1019.83 1019.91 1020.03 1020.07 1020.07 1020.11 1020.19 1020.31 1020.47 1020.75 1020.79 1020.87 1020.91 1020.99 1021.03 1021.15 1021.27 1021.23 1021.31 1021.55 1021.63 1021.87 1021.83 1021.63 1021.71 1021.59 1021.59 1021.75 1021.87 1021.67 1021.91 1022.51 1022.03 1022.31 1022.23 1021.83 1021.59 1021.99 1021.99 1021.95 1021.95
1017.15 1017.39 1017.59 1017.71 1017.83 1017.87 1018.03 1018.15 1018.27 1018.43 1018.47 1018.51 1018.67 1018.83 1018.95 1019.07 1019.19 1019.35 1019.51 1019.51 1019.59 1019.63 1019.75 1019.83 1019.95 1020.07 1020.15 1020.07 1020.19 1020.31 1020.35 1020.75 1020.59 1020.71 1020.87 1020.99 1020.99 1021.11 1021.19 1021.59 1021.43 1021.35 1021.67 1021.75 1021.79 1021.71 1021.67 1021.67 1021.63 1021.87 1021.79 1021.83 1021.75 1021.47 1021.99 1021.63 1021.87 1021.47 1022.03 1021.63 1021.91 1021.95 1022.03
1016.99 1017.15 1017.31 1017.43 1017.51 1017.67 1017.79 1017.91 1017.99 1018.03 1018.23 1018.43 1018.47 1018.63 1018.75 1018.99 1019.11 1019.23 1019.35 1019.47 1019.59 1019.63 1019.67 1019.75 1019.83 1019.99 1020.15 1020.07 1020.07 1020.19 1020.23 1020.51 1020.51 1020.55 1020.87 1020.83 1020.95 1021.15 1021.27 1021.27 1021.15 1021.27 1021.43 1021.75 1021.79 1021.75 1021.71 1021.83 1021.79 1021.79 1021.83 1021.63 1021.71 1021.63 1021.43 1021.31 1021.11 1021.15 1021.55 1021.99 1021.55 1021.63 1021.87
1016.63 1016.79 1016.91 1017.07 1017.23 1017.43 1017.63 1017.75 1017.91 1018.07 1018.11 1018.11 1018.23 1018.43 1018.63 1018.75 1018.91 1019.11 1019.27 1019.39 1019.51 1019.63 1019.55 1019.71 1019.83 1019.99 1020.11 1020.11 1020.11 1020.07 1020.15 1020.35 1020.39 1020.67 1020.75 1020.75 1020.83 1021.03 1021.07 1021.27 1021.31 1021.23 1021.39 1021.55 1021.43 1021.63 1021.71 1021.67 1021.79 1021.79 1021.83 1021.91 1021.91 1021.59 1021.55 1021.39 1021.11 1021.43 1021.19 1021.99 1022.03 1021.39 1021.71
1016.39 1016.51 1016.63 1016.67 1016.87 1017.07 1017.23 1017.43 1017.59 1017.59 1017.71 1017.95 1018.15 1018.27 1018.47 1018.63 1018.75 1018.91 1019.11 1019.23 1019.43 1019.47 1019.59 1019.63 1019.79 1019.95 1020.07 1020.07 1020.23 1020.11 1020.35 1020.35 1020.27 1020.31 1020.55 1020.67 1020.79 1020.91 1020.91 1020.95 1021.27 1021.19 1021.39 1021.35 1021.51 1021.71 1021.79 1021.83 1021.67 1021.83 1021.87 1022.07 1021.95 1021.87 1021.79 1021.83 1021.47 1021.27 1022.23 1021.11 1021.47 1021.83 1021.63
1015.99 1016.19 1016.35 1016.47 1016.67 1016.75 1016.83 1017.03 1017.19 1017.39 1017.47 1017.63 1017.79 1017.95 1018.15 1018.35 1018.51 1018.63 1018.87 1019.03 1019.19 1019.35 1019.43 1019.59 1019.75 1019.83 1020.03 1019.99 1019.99 1020.07 1020.19 1020.27 1020.15 1020.11 1020.27 1020.55 1020.67 1020.79 1020.79 1020.83 1020.95 1021.03 1021.23 1021.39 1021.47 1021.63 1021.63 1021.71 1021.75 1021.75 1021.87 1021.87 1021.91 1021.99 1021.91 1021.79 1021.79 1020.99 1021.95 1021.59 1021.43 1021.55 1021.67
1015.79 1015.91 1016.11 1016.19 1016.27 1016.39 1016.51 1016.63 1016.79 1016.87 1017.07 1017.39 1017.51 1017.79 1017.95 1018.03 1018.19 1018.31 1018.51 1018.75 1018.91 1019.07 1019.27 1019.43 1019.63 1019.75 1019.87 1019.83 1019.91 1019.79 1019.95 1020.07 1019.91 1019.99 1020.11 1020.27 1020.59 1020.63 1020.63 1020.63 1020.71 1020.79 1021.11 1021.07 1021.19 1021.35 1021.51 1021.55 1021.75 1021.71 1021.79 1021.83 1021.75 1022.03 1021.87 1021.87 1021.63 1021.55 1021.63 1022.03 1021.91 1021.47 1021.51
1015.43 1015.67 1015.83 1015.99 1016.07 1016.15 1016.27 1016.39 1016.47 1016.67 1016.87 1016.95 1017.19 1017.35 1017.55 1017.71 1017.87 1018.11 1018.23 1018.35 1018.59 1018.79 1018.99 1019.15 1019.39 1019.59 1019.63 1019.67 1019.63 1019.79 1019.71 1019.79 1019.79 1019.79 1020.11 1019.99 1020.23 1020.43 1020.47 1020.47 1020.51 1020.63 1020.99 1020.87 1020.95 1021.07 1021.11 1021.31 1021.51 1021.55 1021.63 1021.59 1021.55 1021.63 1021.95 1021.59 1021.79 1021.71 1021.15 1021.47 1021.43 1021.63 1021.55
1015.23 1015.39 1015.59 1015.67 1015.79 1015.83 1015.91 1016.07 1016.19 1016.35 1016.51 1016.63 1016.83 1016.99 1017.11 1017.31 1017.51 1017.75 1017.95 1018.03 1018.27 1018.51 1018.67 1018.87 1019.11 1019.23 1019.27 1019.31 1019.27 1019.39 1019.39 1019.39 1019.43 1019.55 1019.79 1019.71 1019.83 1020.15 1020.35 1020.35 1020.23 1020.43 1020.83 1020.91 1020.87 1020.87 1021.07 1021.07 1021.23 1021.23 1021.15 1021.47 1021.35 1021.43 1021.75 1021.71 1021.63 1021.51 1021.35 1021.07 1021.27 1021.23 1021.07
1014.95 1015.11 1015.27 1015.35 1015.43 1015.51 1015.59 1015.75 1015.87 1015.99 1016.11 1016.31 1016.51 1016.63 1016.75 1016.91 1017.23 1017.47 1017.63 1017.79 1017.99 1018.11 1018.39 1018.59 1018.75 1018.87 1018.79 1018.87 1018.99 1018.99 1019.11 1019.15 1019.15 1019.19 1019.23 1019.39 1019.59 1019.83 1019.83 1019.99 1019.99 1020.19 1020.39 1020.47 1020.51 1020.67 1020.83 1020.91 1020.95 1020.91 1020.91 1021.07 1021.19 1021.07 1021.31 1021.63 1021.51 1021.23 1021.19 1021.19 1021.03 1020.95 1020.75
1014.63 1014.75 1014.87 1014.99 1015.11 1015.19 1015.35 1015.51 1015.63 1015.75 1015.91 1016.07 1016.15 1016.35 1016.55 1016.67 1016.91 1017.19 1017.35 1017.39 1017.55 1017.75 1017.87 1018.07 1018.27 1018.43 1018.51 1018.51 1018.55 1018.63 1018.75 1018.87 1018.87 1018.87 1018.91 1018.95 1019.11 1019.31 1019.47 1019.43 1019.39 1019.75 1020.03 1020.11 1020.19 1020.31 1020.39 1020.47 1020.47 1020.59 1020.55 1020.63 1020.75 1020.79 1021.03 1021.23 1021.31 1021.47 1021.31 1021.11 1020.79 1020.79 1020.87
1014.15 1014.31 1014.47 1014.63 1014.71 1014.87 1015.07 1015.27 1015.43 1015.55 1015.63 1015.75 1015.91 1016.03 1016.15 1016.39 1016.51 1016.71 1016.79 1016.87 1016.95 1017.07 1017.31 1017.59 1017.75 1017.79 1017.91 1018.07 1018.23 1018.31 1018.39 1018.47 1018.55 1018.63 1018.67 1018.75 1018.79 1018.87 1018.91 1018.99 1019.03 1019.27 1019.51 1019.59 1019.55 1019.75 1019.91 1019.91 1020.11 1020.27 1020.27 1020.27 1020.31 1020.47 1020.63 1020.87 1021.11 1021.27 1021.35 1020.95 1020.79 1020.55 1020.75
1013.55 1013.83 1014.03 1014.15 1014.35 1014.59 1014.75 1014.91 1015.07 1015.19 1015.35 1015.51 1015.63 1015.79 1015.91 1016.03 1016.15 1016.23 1016.35 1016.47 1016.59 1016.67 1016.83 1017.07 1017.27 1017.35 1017.47 1017.67 1017.79 1017.91 1018.07 1018.15 1018.27 1018.35 1018.35 1018.39 1018.43 1018.47 1018.47 1018.51 1018.59 1018.75 1018.91 1018.95 1019.03 1019.11 1019.31 1019.55 1019.67 1019.63 1019.67 1019.79 1019.91 1020.15 1020.27 1020.35 1020.59 1020.79 1020.87 1020.79 1020.67 1020.71 1020.63
1013.19 1013.35 1013.55 1013.79 1014.03 1014.19 1014.39 1014.59 1014.75 1014.83 1015.03 1015.23 1015.35 1015.43 1015.55 1015.63 1015.71 1015.87 1015.91 1016.07 1016.11 1016.23 1016.43 1016.63 1016.79 1016.95 1017.07 1017.19 1017.39 1017.55 1017.63 1017.79 1017.91 1017.99 1017.99 1018.07 1018.07 1018.07 1018.07 1018.03 1018.03 1018.11 1018.19 1018.31 1018.43 1018.47 1018.71 1018.83 1019.03 1019.11 1019.15 1019.39 1019.47 1019.67 1019.79 1019.91 1020.23 1020.35 1020.47 1020.51 1020.31 1019.99 1020.31
1012.99 1013.19 1013.31 1013.55 1013.71 1013.83 1013.95 1014.11 1014.31 1014.51 1014.71 1014.79 1014.91 1014.99 1015.11 1015.23 1015.35 1015.55 1015.63 1015.75 1015.83 1015.99 1016.15 1016.19 1016.27 1016.43 1016.63 1016.79 1016.95 1017.07 1017.19 1017.31 1017.43 1017.51 1017.55 1017.63 1017.67 1017.67 1017.63 1017.59 1017.59 1017.59 1017.67 1017.71 1017.75 1017.79 1017.91 1017.95 1018.27 1018.43 1018.47 1018.71 1018.87 1019.07 1019.15 1019.47 1019.63 1019.87 1019.91 1019.99 1019.79 1019.99 1020.11
1012.75 1013.03 1013.31 1013.39 1013.43 1013.47 1013.59 1013.71 1013.91 1014.11 1014.27 1014.35 1014.47 1014.63 1014.79 1014.95 1015.03 1015.11 1015.31 1015.43 1015.51 1015.63 1015.71 1015.71 1015.67 1015.75 1015.91 1016.11 1016.35 1016.51 1016.71 1016.83 1016.95 1016.99 1017.03 1017.07 1017.15 1017.19 1017.11 1017.11 1017.07 1017.07 1017.19 1017.23 1017.27 1017.27 1017.35 1017.39 1017.35 1017.27 1017.27 1017.79 1018.03 1018.35 1018.55 1018.83 1019.11 1019.27 1019.35 1019.43 1019.23 1019.19 1019.47
1013.31 1013.71 1013.63 1013.55 1013.43 1013.43 1013.43 1013.47 1013.59 1013.71 1013.87 1014.03 1014.19 1014.35 1014.51 1014.71 1014.75 1014.79 1014.87 1014.99 1015.11 1015.19 1015.15 1015.11 1015.15 1015.35 1015.51 1015.63 1015.83 1016.07 1016.23 1016.27 1016.39 1016.51 1016.55 1016.55 1016.51 1016.47 1016.55 1016.63 1016.67 1016.71 1016.75 1016.79 1016.75 1016.71 1016.71 1016.75 1016.79 1016.71 1016.59 1016.75 1017.19 1017.71 1018.07 1018.39 1018.43 1018.59 1018.91 1018.83 1018.63 1018.95 1018.91
1013.27 1013.27 1013.23 1013.15 1013.15 1013.19 1013.23 1013.31 1013.39 1013.43 1013.55 1013.75 1013.87 1014.07 1014.27 1014.27 1014.31 1014.39 1014.47 1014.55 1014.59 1014.59 1014.59 1014.51 1014.67 1014.87 1015.03 1015.23 1015.47 1015.55 1015.71 1015.83 1015.91 1015.99 1016.03 1016.03 1015.95 1015.95 1015.91 1015.99 1016.07 1016.19 1016.19 1016.15 1016.11 1016.11 1016.15 1016.19 1016.15 1016.11 1016.51 1017.31 1017.51 1017.07 1016.83 1017.23 1017.35 1017.87 1018.07 1018.15 1018.31 1018.35 1018.47
1012.43 1012.83 1012.63 1012.27 1012.31 1012.51 1012.75 1013.07 1013.23 1013.35 1013.31 1013.19 1013.43 1013.75 1013.79 1013.87 1013.91 1013.95 1014.03 1014.07 1014.03 1013.99 1013.99 1013.99 1014.23 1014.35 1014.55 1014.75 1014.99 1015.27 1015.23 1015.31 1015.43 1015.43 1015.47 1015.47 1015.43 1015.39 1015.43 1015.47 1015.47 1015.55 1015.47 1015.55 1015.71 1015.59 1015.55 1015.55 1015.55 1015.79 1016.03 1016.31 1016.35 1016.47 1016.55 1016.51 1016.67 1016.75 1016.91 1017.27 1017.31 1017.43 1017.55
1011.83 1011.59 1011.63 1011.99 1012.31 1012.55 1012.67 1012.51 1012.47 1012.71 1012.99 1013.15 1013.31 1013.31 1013.35 1013.43 1013.43 1013.51 1013.51 1013.51 1013.47 1013.43 1013.43 1013.43 1013.71 1013.87 1014.07 1014.23 1014.43 1014.91 1014.91 1014.83 1014.87 1014.87 1014.83 1014.87 1014.87 1014.83 1014.79 1014.91 1014.91 1014.79 1014.75 1015.03 1014.99 1015.03 1015.07 1015.11 1015.07 1015.23 1015.59 1015.87 1015.91 1015.79 1015.99 1016.15 1016.19 1016.27 1016.35 1016.43 1016.55 1016.47 1016.31
1011.35 1011.43 1011.67 1011.95 1012.11 1012.19 1012.27 1012.31 1012.39 1012.31 1012.39 1012.51 1012.71 1012.79 1012.83 1012.95 1012.95 1013.03 1013.07 1013.11 1013.11 1013.03 1012.87 1012.95 1013.23 1013.39 1013.51 1013.67 1013.87 1014.39 1014.55 1014.55 1014.51 1014.39 1014.31 1014.27 1014.27 1014.19 1014.23 1014.35 1014.35 1014.19 1014.07 1014.23 1014.23 1014.31 1014.59 1014.59 1014.59 1014.99 1015.23 1015.27 1015.23 1015.15 1015.39 1015.59 1015.63 1015.91 1016.59 1016.55 1016.19 1015.95 1015.75
1011.03 1011.11 1011.27 1011.51 1011.67 1011.67 1011.79 1011.95 1011.95 1011.95 1012.11 1012.15 1012.23 1012.31 1012.43 1012.59 1012.63 1012.67 1012.63 1012.71 1012.79 1012.67 1012.47 1012.63 1012.83 1012.95 1013.07 1013.23 1013.51 1014.03 1014.15 1014.19 1014.15 1013.99 1013.83 1013.71 1013.71 1013.75 1013.79 1013.83 1013.83 1013.67 1013.55 1013.51 1013.35 1013.59 1013.83 1014.11 1014.43 1014.79 1014.79 1014.71 1014.79 1014.87 1014.87 1014.63 1014.95 1015.11 1015.15 1015.35 1015.55 1015.51 1015.39
1010.87 1010.87 1010.99 1011.19 1011.27 1011.27 1011.39 1011.55 1011.67 1011.75 1011.91 1011.87 1011.99 1012.11 1012.07 1012.03 1011.99 1012.11 1012.23 1012.27 1012.35 1012.23 1012.11 1012.19 1012.43 1012.51 1012.63 1012.79 1013.31 1013.55 1013.55 1013.63 1013.63 1013.51 1013.27 1013.07 1013.15 1013.23 1013.19 1013.11 1013.15 1013.11 1012.99 1012.87 1012.71 1013.07 1013.47 1013.95 1014.31 1014.47 1014.43 1014.43 1014.39 1014.43 1014.23 1014.27 1014.51 1014.63 1014.67 1014.67 1014.79 1014.99 1015.07
1010.75 1010.75 1010.91 1010.95 1010.83 1010.87 1011.11 1011.27 1011.23 1011.27 1011.55 1011.55 1011.59 1011.51 1011.55 1011.67 1011.71 1011.79 1011.83 1011.83 1011.87 1011.91 1011.67 1011.67 1011.87 1011.87 1011.99 1012.15 1012.55 1012.71 1012.79 1012.95 1012.91 1012.83 1012.63 1012.55 1012.63 1012.67 1012.47 1012.31 1012.39 1012.59 1012.55 1012.31 1012.19 1012.55 1013.07 1013.59 1013.95 1013.91 1014.03 1014.11 1014.07 1014.03 1013.79 1014.03 1014.27 1014.31 1014.39 1014.51 1014.67 1014.75 1014.83
1010.43 1010.47 1010.55 1010.55 1010.55 1010.67 1010.71 1010.67 1010.75 1011.15 1011.27 1011.31 1011.27 1011.27 1011.39 1011.47 1011.43 1011.39 1011.39 1011.39 1011.39 1011.51 1011.31 1011.23 1011.39 1011.51 1011.59 1011.79 1012.31 1012.47 1012.39 1012.47 1012.51 1012.27 1012.23 1012.11 1012.07 1012.19 1012.03 1011.95 1011.99 1011.99 1011.91 1011.67 1011.71 1012.15 1012.63 1012.95 1013.15 1013.35 1013.39 1013.63 1013.55 1013.35 1013.03 1013.35 1013.79 1014.15 1014.35 1014.59 1014.63 1014.71 1014.75
1010.19 1010.27 1010.23 1010.27 1010.31 1010.27 1010.35 1010.67 1010.87 1010.99 1011.03 1011.07 1011.11 1011.11 1011.19 1011.19 1011.15 1010.99 1011.03 1011.15 1011.19 1011.11 1011.03 1010.79 1010.83 1010.95 1011.03 1011.19 1011.59 1011.87 1012.03 1012.19 1012.11 1011.75 1011.63 1011.71 1011.67 1011.59 1011.75 1011.71 1011.47 1011.31 1011.31 1011.47 1011.67 1011.95 1012.19 1012.31 1012.43 1012.63 1012.99 1013.19 1013.15 1012.63 1012.55 1013.35 1013.51 1013.59 1013.79 1013.91 1013.91 1014.19 1014.35
1010.23 1010.19 1010.11 1010.03 1010.03 1010.19 1010.47 1010.79 1010.87 1010.91 1010.87 1010.83 1010.83 1010.83 1010.79 1010.83 1010.87 1010.79 1010.71 1010.75 1010.75 1010.71 1010.67 1010.55 1010.39 1010.59 1010.67 1010.71 1010.99 1011.51 1011.59 1011.63 1011.35 1011.27 1011.19 1011.23 1011.23 1011.11 1011.11 1010.95 1010.83 1010.87 1011.11 1011.31 1011.47 1011.51 1011.63 1011.95 1012.15 1012.31 1012.55 1012.55 1012.27 1012.55 1013.11 1013.03 1013.11 1013.35 1013.51 1013.71 1013.91 1014.15 1014.43
1010.35 1010.35 1010.23 1010.11 1010.07 1010.07 1010.31 1010.63 1010.71 1010.63 1010.75 1010.75 1010.71 1010.63 1010.55 1010.55 1010.59 1010.51 1010.43 1010.47 1010.47 1010.31 1010.15 1010.19 1010.11 1010.11 1010.31 1010.35 1010.47 1010.87 1011.11 1010.91 1010.67 1010.75 1010.87 1010.79 1010.71 1010.79 1010.59 1010.23 1010.47 1010.75 1010.87 1010.99 1011.07 1011.07 1011.35 1011.71 1012.03 1012.39 1012.27 1012.35 1012.51 1012.79 1012.91 1012.79 1012.95 1013.23 1013.47 1013.75 1013.95 1014.07 1014.39
1010.35 1010.31 1010.31 1010.31 1010.35 1010.35 1010.35 1010.47 1010.43 1010.47 1010.55 1010.51 1010.43 1010.39 1010.35 1010.43 1010.55 1010.51 1010.35 1010.39 1010.27 1010.15 1010.03 1010.07 1010.19 1010.15 1010.03 1010.11 1010.07 1010.27 1010.39 1010.19 1009.99 1010.35 1010.39 1010.27 1010.11 1009.99 1009.99 1010.11 1010.31 1010.51 1010.63 1010.75 1011.07 1011.19 1011.43 1011.79 1012.15 1012.35 1012.35 1012.47 1012.59 1012.83 1012.83 1012.83 1013.03 1013.19 1013.39 1013.59 1013.75 1013.91 1014.31
1011.39 1011.19 1010.95 1010.67 1010.51 1010.51 1010.47 1010.35 1010.31 1010.27 1010.31 1010.35 1010.35 1010.31 1010.35 1010.39 1010.51 1010.43 1010.27 1010.15 1009.99 1009.95 1009.95 1009.95 1009.99 1009.99 1009.91 1009.87 1009.79 1009.83 1010.03 1009.99 1010.03 1010.19 1010.15 1009.95 1009.67 1009.79 1009.99 1010.15 1010.27 1010.63 1010.91 1011.19 1011.39 1011.43 1011.51 1011.75 1011.95 1012.07 1012.31 1012.59 1012.83 1012.87 1012.87 1012.95 1013.15 1013.31 1013.43 1013.59 1013.79 1014.07 1014.31
Wind_Speed
7 8 6 5 3 3 4 4 2 2 0 0 2 4 3 4 5 5 5 5 5 4 3 4 5 4 4 3 4 4 4 4 5 7 5 5 6 3 2 3 4 4 2 2 4 5 2 2 2 1 2 4 4 6 6 6 6 6 6 5 5 5 5
5 3 3 3 4 3 4 2 2 3 1 0 2 3 3 5 3 5 5 5 5 4 4 5 4 4 5 5 5 4 5 3 4 5 6 6 5 5 4 1 3 3 3 3 2 3 2 2 4 2 4 1 2 5 6 5 4 5 6 6 5 5 4
4 4 4 5 4 4 4 4 3 3 4 2 1 1 3 4 4 4 5 6 6 5 4 6 5 5 4 4 4 5 5 5 3 5 5 6 5 5 5 6 4 2 2 2 2 3 3 1 4 3 3 4 5 4 2 5 5 5 4 5 5 5 5
6 6 5 4 4 3 5 5 4 5 3 4 2 1 3 3 4 3 4 5 5 4 5 6 6 6 5 5 4 5 4 6 5 5 4 4 4 4 4 5 6 6 6 4 4 3 3 3 1 4 4 3 4 5 2 2 3 3 4 4 5 5 5
8 7 8 8 7 7 6 6 4 3 4 3 2 2 2 4 3 3 3 3 4 5 5 5 5 5 5 5 5 5 4 4 4 5 5 6 4 3 3 3 4 4 3 3 4 5 5 4 4 4 3 0 2 4 4 5 2 2 2 4 4 4 4
7 8 8 8 8 7 6 5 5 6 4 4 5 4 4 5 4 5 4 5 4 3 5 5 5 6 6 5 5 5 5 6 5 6 6 6 6 5 5 2 2 4 5 1 4 4 2 3 4 3 2 1 4 3 2 1 1 3 1 3 3 3 3
7 7 7 8 8 7 7 7 7 7 7 7 6 7 6 6 5 5 5 5 4 5 5 5 6 5 6 6 6 6 6 4 4 5 5 5 3 2 4 4 3 3 3 3 4 5 5 5 3 4 4 1 1 3 2 2 1 1 2 1 1 2 3
8 7 7 7 8 8 6 7 7 6 7 6 7 6 5 6 5 5 5 5 5 5 4 4 4 4 5 5 5 5 5 5 5 5 5 6 5 5 4 4 4 3 4 4 4 4 4 5 5 5 5 2 2 0 2 2 2 3 2 2 1 2 3
7 7 7 6 6 8 8 8 8 7 7 6 5 4 5 6 6 6 5 5 5 5 5 5 5 5 5 5 5 5 5 3 5 5 5 5 5 6 5 4 4 5 3 4 4 4 4 4 4 4 5 4 4 4 2 3 2 4 2 3 1 2 3
8 9 8 9 9 8 7 7 7 8 6 5 6 5 6 6 5 5 5 5 6 5 5 5 6 5 5 4 5 5 5 5 5 6 5 5 5 5 4 6 5 5 4 3 3 3 3 3 3 4 5 6 6 2 2 2 3 5 4 3 4 5 4
9 9 8 9 8 7 7 6 5 4 7 7 6 5 6 7 6 6 6 5 5 6 6 6 6 6 5 4 5 5 5 5 5 4 4 5 5 4 4 3 3 4 3 4 4 3 4 4 4 5 5 3 5 5 5 3 4 3 3 1 3 3 2
8 8 8 8 8 8 9 8 8 8 6 5 6 6 6 6 6 6 6 6 5 6 6 6 6 6 6 5 4 5 4 5 5 6 5 5 4 5 5 6 4 4 4 5 4 4 3 4 5 4 3 3 4 5 5 4 2 2 3 3 3 3 2
9 9 9 8 7 8 9 9 9 7 8 6 7 7 7 7 7 8 7 7 7 6 6 6 6 6 6 6 6 6 5 6 6 6 5 4 4 5 6 6 6 5 5 4 5 5 5 4 4 4 4 4 4 4 5 5 5 6 4 4 3 3 3
10 9 8 8 9 9 8 8 8 9 7 7 7 7 8 8 9 8 8 8 8 7 7 7 6 6 7 7 6 7 6 7 7 6 6 6 5 5 6 7 7 6 5 6 6 5 5 5 4 4 4 4 4 4 5 5 5 6 4 3 3 4 1
9 8 9 8 8 8 8 8 8 7 7 8 8 9 9 8 8 8 8 9 8 8 8 8 7 7 7 7 7 6 7 7 7 7 6 7 7 6 6 7 7 7 6 7 6 6 6 5 5 4 4 5 5 5 4 5 5 4 7 2 3 3 4
9 9 10 8 9 9 8 8 8 8 8 7 7 8 9 9 9 9 9 8 9 8 9 8 7 8 8 9 9 8 8 9 9 8 8 9 8 7 7 8 8 7 5 6 7 6 6 6 5 6 6 4 5 6 5 5 5 6 7 7 3 4 4
9 10 10 9 10 10 9 8 8 8 8 7 8 8 8 9 8 9 9 9 9 9 8 8 8 9 10 10 9 10 9 9 9 9 10 9 9 8 9 8 9 8 7 8 7 7 6 6 6 6 6 6 6 7 6 6 7 7 6 7 3 5 3
10 11 11 9 11 10 9 8 7 9 8 7 8 7 7 7 8 8 8 10 10 10 10 10 10 10 9 9 10 9 9 9 9 9 9 9 8 9 9 10 9 8 8 9 8 7 7 9 7 7 7 6 6 7 5 6 6 6 6 8 6 4 3
11 12 12 10 11 10 9 8 8 7 8 9 8 8 8 7 8 10 9 10 10 11 10 9 10 11 10 10 9 9 8 8 9 9 9 9 8 8 9 9 8 8 9 10 9 8 8 10 7 7 8 7 7 6 7 6 6 6 6 8 7 7 3
12 11 11 11 9 8 9 9 9 9 8 9 8 8 8 9 8 9 10 10 10 10 10 10 10 10 10 9 9 9 9 8 8 8 7 8 8 8 9 8 9 9 10 10 10 10 9 9 8 10 9 8 6 7 7 7 6 7 7 7 6 6 5
11 11 10 9 9 9 9 8 9 9 8 9 9 9 9 10 9 9 9 10 10 9 9 9 9 9 9 9 9 9 9 9 9 8 8 8 8 8 9 9 9 9 9 9 9 9 9 9 7 8 7 7 8 8 8 7 7 7 7 7 8 7 5
8 9 9 9 9 9 10 9 9 8 8 9 8 9 9 9 9 9 9 9 9 8 8 9 9 9 9 10 9 9 9 9 9 9 8 8 8 8 8 8 9 9 11 13 15 13 11 10 8 9 9 9 9 9 8 7 7 6 6 6 7 5 5
8 7 8 9 10 10 9 9 9 9 10 10 9 9 9 9 9 10 10 10 9 8 8 8 9 15 13 10 9 8 8 8 9 9 9 9 8 9 9 8 9 14 16 17 16 17 17 16 16 13 10 10 10 9 9 8 7 7 6 6 8 7 7
1 3 5 5 7 8 9 9 9 9 9 9 10 9 8 9 9 9 10 10 10 9 9 9 14 15 16 17 10 8 9 9 9 8 8 9 9 8 8 8 8 11 13 14 15 19 19 19 19 20 19 15 8 8 8 9 9 8 8 9 8 6 7
4 8 7 9 9 9 8 8 9 10 9 9 9 8 9 10 10 9 9 9 10 10 10 12 16 16 17 17 14 10 8 9 8 8 8 8 9 8 9 8 8 7 9 12 12 13 15 19 20 21 16 8 10 18 17 13 11 8 9 8 8 8 7
7 6 9 10 9 9 9 8 9 9 11 11 8 9 11 10 10 10 10 11 11 11 10 13 16 17 17 17 17 14 9 9 9 9 10 9 10 9 9 9 8 8 7 14 12 12 12 12 15 17 18 18 19 18 17 18 17 13 7 9 9 9 10
11 13 13 10 8 8 7 10 10 9 8 7 8 9 10 11 11 11 11 11 11 10 11 13 16 16 16 17 17 13 10 11 10 11 11 10 10 11 11 10 9 10 9 9 10 11 11 11 11 10 10 11 12 15 18 19 19 21 16 10 9 11 10
12 11 10 9 9 9 10 9 9 9 9 10 10 11 11 11 11 11 11 10 10 11 10 13 15 16 17 17 17 13 9 9 9 11 11 11 12 12 11 10 10 11 11 10 10 11 11 12 11 8 9 10 12 12 12 12 14 11 8 11 12 12 11
11 11 10 9 10 11 10 10 11 9 8 8 8 8 8 8 10 10 10 10 10 12 11 14 15 16 17 16 16 9 9 8 10 11 12 12 11 10 10 11 11 12 12 12 14 16 14 11 9 9 11 12 10 10 11 11 10 11 13 12 12 12 11
11 11 10 10 11 11 11 10 9 7 8 9 9 9 10 10 10 10 10 10 11 12 11 12 14 16 16 17 11 8 9 8 8 11 13 13 11 10 11 12 12 12 12 13 15 14 15 12 9 10 12 11 10 9 12 8 11 15 16 17 17 16 16
10 10 9 10 12 11 9 8 10 8 9 9 9 10 9 9 9 8 10 11 10 11 12 12 15 16 17 18 14 11 9 8 10 11 12 11 9 9 13 18 15 12 12 13 16 14 12 12 10 12 10 11 11 11 11 6 6 8 12 15 15 16 15
9 10 10 11 10 10 10 11 9 6 7 8 9 8 7 8 9 8 9 10 12 13 12 12 14 15 16 16 12 9 9 9 10 11 10 11 10 9 11 11 15 15 14 15 17 12 13 13 11 11 12 10 11 12 12 8 8 7 6 6 7 7 7
9 9 10 10 9 10 9 7 6 7 7 7 7 6 6 7 10 10 8 8 9 10 11 12 12 16 16 16 16 11 9 9 11 13 11 10 10 10 9 10 12 18 19 18 15 11 13 16 12 9 8 9 10 14 6 4 7 7 7 8 7 6 7
8 8 9 9 9 7 4 3 4 6 7 6 7 7 8 7 8 9 8 8 8 9 9 11 12 15 16 16 15 14 9 11 12 11 11 10 10 11 9 11 10 10 11 12 12 14 14 14 13 9 8 10 11 3 3 4 5 8 6 5 3 3 3
5 6 6 6 7 8 3 2 5 7 5 6 7 8 7 7 8 9 8 7 7 9 9 13 12 13 14 16 15 16 11 12 13 11 11 10 10 9 11 11 6 5 9 11 14 13 11 11 13 8 9 10 7 5 4 2 3 3 3 3 3 3 3
7 5 5 5 5 7 4 2 5 4 5 6 7 8 8 7 7 8 8 6 6 7 8 8 9 11 13 14 15 14 18 16 17 12 10 11 11 11 9 7 5 8 10 9 8 8 7 9 7 7 11 11 8 4 4 2 3 4 3 4 3 4 2
11 10 10 7 5 5 5 4 4 5 4 5 5 7 6 6 6 7 8 7 6 6 5 6 8 13 12 13 14 14 15 19 17 9 9 10 10 7 4 3 4 2 4 7 7 7 7 7 7 9 8 6 3 4 3 3 3 2 2 2 2 1 1
Wind_Direction
172 193 199 189 194 158 161 202 217 242 300 74 105 106 139 129 119 111 117 117 116 123 112 110 123 126 100 78 95 109 114 130 140 141 166 176 157 184 64 85 86 81 74 73 136 178 179 199 276 307 251 245 228 227 219 219 206 214 212 219 223 228 232
185 177 156 158 154 146 159 203 221 244 272 329 97 131 155 160 145 140 137 127 122 125 120 117 113 112 124 126 118 109 124 113 139 153 141 184 161 172 134 66 80 70 64 63 111 87 149 197 267 214 255 339 250 251 239 233 229 214 216 215 220 225 226
157 132 149 149 155 153 178 193 219 242 247 236 272 115 159 173 152 150 146 144 142 144 132 139 133 120 123 121 143 143 137 116 96 149 169 171 185 164 168 155 131 94 59 66 43 77 49 109 239 246 227 239 243 267 248 237 231 225 220 217 219 227 229
166 149 140 148 150 155 190 202 206 223 235 241 255 174 164 180 168 166 158 158 160 150 139 146 155 149 146 133 131 119 127 141 147 128 104 118 148 147 155 168 178 174 179 177 201 199 163 169 188 265 257 202 238 287 274 264 252 238 221 209 218 222 224
166 166 172 178 185 188 193 196 204 214 243 251 252 211 207 187 182 161 159 153 152 142 161 154 146 140 139 132 129 132 126 110 121 121 128 131 138 126 153 171 180 162 148 161 184 168 169 201 187 238 229 335 270 233 291 312 257 259 228 220 226 226 213
176 176 182 184 186 188 190 185 183 207 212 226 233 211 225 196 179 156 162 165 170 184 157 150 147 140 140 136 136 130 139 152 160 151 152 171 164 164 182 170 161 168 195 179 133 144 97 125 144 193 236 178 226 293 283 345 306 317 274 248 231 222 206
183 185 186 186 190 193 185 188 190 195 198 206 204 213 202 184 191 193 180 185 179 171 168 164 156 154 146 143 145 144 153 152 135 148 150 148 144 151 139 144 169 170 153 150 143 134 150 138 153 193 184 203 171 262 294 308 347 251 211 295 278 201 198
183 187 193 193 185 186 193 191 198 197 200 206 205 212 180 185 192 188 194 182 178 178 166 162 154 152 147 140 147 146 133 144 144 142 144 147 152 152 161 163 161 177 180 169 162 179 160 174 159 170 155 217 302 34 294 309 309 222 228 307 356 89 161
188 188 192 195 194 191 187 191 198 200 208 201 205 185 196 183 184 192 194 200 189 179 177 168 162 160 163 147 147 148 150 154 143 151 158 154 160 169 160 147 143 191 188 182 194 179 185 173 154 141 142 146 194 275 331 297 325 272 176 159 211 222 200
189 187 191 194 194 196 190 197 195 208 201 197 197 192 187 189 187 186 192 197 197 192 180 179 172 175 178 172 163 164 165 165 153 167 156 168 171 164 152 171 178 182 195 184 190 191 174 150 164 166 164 171 167 172 257 289 276 222 227 204 171 207 205
192 196 193 194 193 185 195 198 203 192 208 206 193 189 185 186 188 189 191 197 200 192 193 184 181 180 178 187 181 186 182 162 162 143 174 168 173 168 166 164 172 187 187 172 200 192 177 175 169 181 183 171 159 183 188 200 272 205 239 259 224 220 192
197 197 199 197 186 187 194 197 196 209 211 191 188 187 185 192 186 191 192 196 191 199 195 192 184 181 183 187 189 192 175 170 171 183 183 176 182 170 175 193 184 209 182 195 199 204 206 178 189 172 180 151 180 161 164 148 215 278 189 216 250 230 265
193 195 197 194 189 195 200 197 203 207 210 193 198 192 188 191 191 190 193 195 195 196 195 197 186 185 185 197 191 190 193 178 182 194 198 193 173 182 186 203 203 204 194 191 204 206 206 212 176 179 173 176 182 170 149 161 199 255 210 210 237 280 222
198 198 200 198 194 199 204 202 203 210 199 198 190 191 196 197 195 197 188 191 196 196 198 198 193 184 192 200 203 198 183 187 190 206 195 205 204 189 198 206 215 215 182 192 206 204 208 202 187 190 170 165 179 175 166 175 214 262 271 218 248 250 252
198 195 199 201 201 203 204 204 205 205 201 208 187 197 200 200 197 194 192 197 197 199 199 200 191 186 196 203 205 201 191 187 198 204 196 211 203 205 194 207 220 215 186 202 201 205 201 191 191 185 191 187 189 192 203 177 214 230 271 252 255 216 245
200 199 202 205 207 206 207 206 202 201 206 208 196 198 202 198 197 193 197 198 196 199 201 200 195 195 204 204 204 205 201 193 197 198 199 211 205 190 198 208 219 205 173 202 211 212 197 207 192 200 204 192 201 204 193 201 180 231 249 266 236 269 250
200 202 204 209 211 211 208 207 201 203 207 206 199 206 202 200 193 193 199 199 197 201 200 202 199 205 206 204 207 208 204 203 201 203 204 205 201 191 202 207 220 203 188 202 212 206 203 200 199 202 209 200 203 207 195 191 209 221 225 256 243 224 229
204 205 208 209 213 212 211 209 206 206 205 208 208 201 204 195 193 193 200 201 199 201 205 200 200 206 211 209 209 209 207 207 209 207 209 209 202 197 201 209 216 193 189 207 213 210 200 203 206 200 210 206 204 208 196 192 207 207 223 238 258 225 236
207 208 209 210 211 210 209 209 209 212 205 210 208 204 201 195 193 198 204 205 203 206 205 201 203 207 207 208 210 213 211 211 213 211 212 212 208 203 206 212 214 194 194 204 216 211 203 210 200 207 212 213 210 198 206 202 197 203 216 240 240 268 192
207 208 209 210 208 206 209 210 208 211 207 210 207 206 206 200 202 202 209 208 208 208 206 204 208 211 210 205 208 211 215 215 216 218 217 215 213 212 212 215 212 204 204 208 214 210 205 206 202 211 210 210 205 205 210 209 201 203 210 231 243 234 257
211 211 210 209 206 207 209 210 213 214 205 209 212 211 207 204 205 203 208 208 213 211 209 209 212 213 211 208 207 213 213 214 216 221 223 220 216 216 217 217 214 209 209 211 212 217 201 211 203 216 211 204 207 207 216 209 196 204 212 222 233 241 212
217 216 213 210 210 210 210 212 213 211 209 212 214 214 212 208 205 208 213 212 215 213 213 216 214 210 211 212 209 214 211 214 215 221 225 222 220 220 222 222 221 217 218 220 218 215 210 205 196 215 216 200 204 206 215 212 206 203 216 220 241 219 238
212 212 214 216 218 217 214 213 211 212 214 215 215 213 212 213 211 209 210 215 216 215 219 222 219 214 212 211 209 214 215 218 216 220 225 228 229 224 226 223 227 225 224 225 223 223 224 218 213 212 214 195 201 200 208 210 212 208 211 221 232 217 221
133 272 262 251 237 225 223 218 216 217 218 217 216 215 210 213 215 214 214 214 216 218 222 223 222 220 218 218 214 214 216 223 219 220 225 229 235 230 228 225 232 230 229 227 229 229 227 227 226 226 224 207 189 190 201 212 225 208 210 225 233 215 226
187 209 210 224 231 236 233 225 223 222 221 221 220 211 214 217 217 216 216 218 220 220 223 223 221 220 220 220 218 219 220 225 223 222 225 226 234 237 237 231 226 219 223 225 228 234 232 231 231 231 232 218 209 217 209 202 217 213 209 218 221 217 215
204 225 235 230 220 215 214 220 229 230 228 225 216 211 220 217 220 217 216 219 223 223 228 224 220 221 222 220 218 219 229 226 228 232 228 227 233 236 236 236 239 228 225 221 225 233 234 237 236 231 222 212 222 225 225 221 220 224 207 209 216 228 209
208 218 221 227 228 231 232 226 220 220 230 233 224 224 222 223 224 222 220 222 227 229 230 228 219 221 223 222 220 211 230 230 233 238 236 233 235 238 235 235 239 245 234 223 230 230 230 232 232 227 217 218 224 229 230 229 228 229 224 218 219 232 229
218 223 220 216 229 230 231 237 233 226 219 220 220 223 223 225 227 225 226 226 231 235 235 228 222 221 222 222 222 209 225 230 236 242 242 240 239 240 240 236 238 246 248 237 232 221 218 223 226 220 225 223 225 226 224 229 227 225 216 229 237 235 240
222 227 227 221 222 231 229 231 234 229 228 231 231 229 232 229 233 232 228 228 232 241 243 232 226 226 225 225 219 208 217 224 231 240 244 244 241 241 241 239 240 244 245 245 244 223 213 213 203 216 226 232 234 229 230 228 225 208 210 212 223 231 234
222 227 225 226 229 231 230 231 235 226 228 230 229 228 231 229 229 228 230 228 230 240 246 236 226 228 227 225 214 212 219 222 231 237 243 245 240 239 239 238 236 241 245 246 248 231 212 200 194 211 226 231 236 236 245 228 205 212 215 214 218 226 234
222 227 225 228 234 238 237 238 238 222 224 229 228 230 230 237 238 233 233 234 229 238 245 238 226 229 227 225 211 217 221 223 237 240 247 249 242 239 240 240 236 237 242 246 246 234 205 187 197 211 220 224 231 236 244 215 193 215 213 216 223 229 235
220 225 226 229 232 236 231 230 233 216 223 231 239 239 237 240 244 238 233 234 233 233 246 246 233 235 235 232 219 225 228 227 239 246 247 253 248 239 249 251 246 241 240 245 246 230 192 185 199 206 216 222 232 236 236 193 186 191 198 205 228 219 244
224 226 233 232 230 232 235 238 235 227 232 229 240 241 238 238 243 247 241 239 243 240 247 251 240 232 234 232 216 214 220 227 237 246 247 246 255 249 242 251 249 242 239 243 249 223 197 196 203 210 210 222 236 242 238 171 201 189 196 202 213 202 228
234 237 239 239 237 244 221 223 240 230 231 229 224 235 234 238 246 252 246 237 239 243 241 250 253 239 241 240 227 206 224 224 236 242 247 245 241 250 255 248 246 250 233 232 233 227 218 209 209 210 213 227 232 292 43 210 198 191 192 200 205 191 209
285 274 272 265 267 266 262 183 229 242 227 234 240 245 246 243 247 253 250 240 238 247 243 244 253 251 240 244 240 211 216 229 228 230 237 246 246 243 246 256 257 219 222 216 221 229 220 214 212 214 228 241 264 264 237 136 130 130 168 168 176 162 176
323 312 292 291 290 287 292 236 244 239 238 247 253 257 255 254 252 260 261 250 249 253 261 266 263 269 259 247 248 229 219 227 232 223 224 240 240 237 240 252 239 197 206 227 229 223 215 213 206 220 236 240 251 222 183 136 135 155 171 182 170 199 156
22 18 11 359 344 322 306 270 249 246 238 238 248 253 254 249 248 255 265 274 273 268 267 267 260 260 266 265 256 248 239 234 237 228 221 230 241 243 236 212 225 236 198 171 179 188 201 191 201 219 229 243 227 178 155 144 133 151 149 146 176 199 132